This demonstration page uses our WeatherBlox Daily Observations layout. Learn more.

Left ArrowRight Arrow

Hourly Observations for February 7, 2015

Temp ( °F °C ) Dew Point ( °F °C ) Humidity (%) Winds ( mph kmh ) Pressure ( in mb ) Visibility ( mi km ) Precip ( " mm )
12:15 am 00:15 Clear 23 -5 16 -9 74 74 Calm 30.24 1024 10 16 0.00 0.00
12:35 am 00:35 Clear 25 -4 14 -10 63 63 Calm 30.24 1024 10 16 0.00 0.00
12:55 am 00:55 Clear 25 -4 14 -10 63 63 Calm 30.24 1024 10 16 0.00 0.00
1:15 am 01:15 Clear 23 -5 16 -9 74 74 Calm 30.24 1024 10 16 0.00 0.00
1:35 am 01:35 Clear 23 -5 14 -10 68 68 SW 5 7 30.21 1023 10 16 0.00 0.00
1:55 am 01:55 Clear 21 -6 14 -10 74 74 Calm 30.21 1023 10 16 0.00 0.00
2:15 am 02:15 Clear 21 -6 16 -9 80 80 Calm 30.21 1023 10 16 0.00 0.00
2:35 am 02:35 Clear 23 -5 16 -9 74 74 SW 3 6 30.21 1023 10 16 0.00 0.00
2:55 am 02:55 Clear 21 -6 14 -10 74 74 WSW 5 7 30.18 1022 10 16 0.00 0.00
3:15 am 03:15 Partly Cloudy 21 -6 16 -9 80 80 WNW 5 7 30.21 1023 10 16 0.00 0.00
3:35 am 03:35 Mostly Cloudy 25 -4 14 -10 63 63 W 3 6 30.21 1023 10 16 0.00 0.00
3:55 am 03:55 Cloudy 27 -3 16 -9 64 64 SSW 5 7 30.18 1022 10 16 0.00 0.00
4:15 am 04:15 Cloudy 27 -3 19 -7 74 74 Calm 30.18 1022 10 16 0.00 0.00
4:35 am 04:35 Cloudy 27 -3 19 -7 74 74 Calm 30.18 1022 10 16 0.00 0.00
4:55 am 04:55 Cloudy 27 -3 21 -6 80 80 Calm 30.18 1022 10 16 0.00 0.00
5:15 am 05:15 Cloudy 27 -3 19 -7 74 74 Calm 30.18 1022 10 16 0.00 0.00
5:35 am 05:35 Cloudy 27 -3 19 -7 74 74 Calm 30.18 1022 10 16 0.00 0.00
5:55 am 05:55 Cloudy 27 -3 21 -6 80 80 Calm 30.21 1023 10 16 0.00 0.00
6:15 am 06:15 Cloudy 28 -2 19 -7 69 69 Calm 30.21 1023 10 16 0.00 0.00
6:35 am 06:35 Cloudy 28 -2 18 -8 64 64 Calm 30.21 1023 10 16 0.00 0.00
6:55 am 06:55 Cloudy 28 -2 21 -6 74 74 S 5 7 30.21 1023 10 16 0.00 0.00
7:15 am 07:15 Mostly Cloudy 28 -2 19 -7 69 69 Calm 30.21 1023 10 16 0.00 0.00
7:35 am 07:35 Partly Cloudy 27 -3 21 -6 80 80 Calm 30.21 1023 10 16 0.00 0.00
7:55 am 07:55 Partly Cloudy 28 -2 19 -7 69 69 SW 3 6 30.24 1024 10 16 0.00 0.00
8:15 am 08:15 Mostly Cloudy 30 -1 18 -8 59 59 S 5 7 30.21 1023 10 16 0.00 0.00
8:35 am 08:35 Cloudy 30 -1 18 -8 59 59 Calm 30.21 1023 10 16 0.00 0.00
8:55 am 08:55 Mostly Cloudy 32 0 18 -8 55 55 Calm 30.21 1023 10 16 0.00 0.00
9:15 am 09:15 Mostly Cloudy 32 0 18 -8 55 55 S 6 9 30.21 1023 10 16 0.00 0.00
9:35 am 09:35 Cloudy 32 0 18 -8 55 55 SSW 5 7 30.18 1022 10 16 0.00 0.00
9:55 am 09:55 Mostly Cloudy 34 1 16 -9 48 48 S 6 9 30.18 1022 10 16 0.00 0.00
10:15 am 10:15 Cloudy 34 1 14 -10 44 44 SSW 6 9 30.18 1022 10 16 0.00 0.00
10:35 am 10:35 Cloudy 36 2 14 -10 41 41 SSW 8 13 30.18 1022 10 16 0.00 0.00
10:55 am 10:55 Mostly Cloudy 36 2 14 -10 41 41 SSW 9 15 30.18 1022 10 16 0.00 0.00
11:15 am 11:15 Partly Cloudy 37 3 14 -10 38 38 S 5 7 30.15 1021 10 16 0.00 0.00
11:35 am 11:35 Partly Cloudy 37 3 14 -10 38 38 S 3 6 30.12 1020 10 16 0.00 0.00
11:55 am 11:55 Sunny 37 3 14 -10 38 38 S 6 9 30.12 1020 10 16 0.00 0.00
12:15 pm 12:15 Sunny 39 4 14 -10 36 36 S 7 11 30.09 1019 10 16 0.00 0.00
12:35 pm 12:35 Sunny 39 4 16 -9 39 39 S 7 11 30.09 1019 10 16 0.00 0.00
12:55 pm 12:55 Sunny 41 5 18 -8 39 39 SSW 7 11 30.06 1018 10 16 0.00 0.00
1:15 pm 13:15 Sunny 43 6 18 -8 36 36 SSW 5 7 30.06 1018 10 16 0.00 0.00
1:35 pm 13:35 Sunny 43 6 19 -7 39 39 S 6 9 30.06 1018 10 16 0.00 0.00
1:55 pm 13:55 Sunny 43 6 19 -7 39 39 SSW 7 11 30.03 1017 10 16 0.00 0.00
2:15 pm 14:15 Sunny 45 7 19 -7 37 37 SSW 8 13 30.03 1017 10 16 0.00 0.00
2:35 pm 14:35 Sunny 45 7 19 -7 37 37 S 9 15 30.03 1017 10 16 0.00 0.00
2:55 pm 14:55 Sunny 45 7 19 -7 37 37 S 9 15 30.00 1016 10 16 0.00 0.00
3:15 pm 15:15 Sunny 46 8 19 -7 34 34 SSW 7 11 30.00 1016 10 16 0.00 0.00
3:35 pm 15:35 Sunny 45 7 19 -7 37 37 SSW 6 9 30.00 1016 10 16 0.00 0.00
3:55 pm 15:55 Sunny 45 7 19 -7 37 37 SSW 5 7 30.00 1016 10 16 0.00 0.00
4:15 pm 16:15 Sunny 45 7 19 -7 37 37 SSW 3 6 30.00 1016 10 16 0.00 0.00
4:35 pm 16:35 Sunny 45 7 21 -6 39 39 Calm 30.00 1016 10 16 0.00 0.00
4:55 pm 16:55 Sunny 45 7 19 -7 37 37 Calm 30.00 1016 10 16 0.00 0.00
5:15 pm 17:15 Sunny 45 7 21 -6 39 39 Calm 30.00 1016 10 16 0.00 0.00
5:35 pm 17:35 Sunny 45 7 19 -7 37 37 Calm 30.00 1016 10 16 0.00 0.00
5:55 pm 17:55 Clear 43 6 21 -6 42 42 Calm 30.00 1016 10 16 0.00 0.00
6:15 pm 18:15 Clear 43 6 19 -7 39 39 Calm 30.03 1017 10 16 0.00 0.00
6:35 pm 18:35 Clear 41 5 21 -6 45 45 Calm 30.03 1017 10 16 0.00 0.00
6:55 pm 18:55 Clear 39 4 21 -6 48 48 Calm 30.03 1017 10 16 0.00 0.00
7:15 pm 19:15 Clear 37 3 21 -6 52 52 Calm 30.03 1017 10 16 0.00 0.00
7:35 pm 19:35 Clear 37 3 21 -6 52 52 Calm 30.03 1017 10 16 0.00 0.00
7:55 pm 19:55 Clear 36 2 23 -5 60 60 Calm 30.03 1017 10 16 0.00 0.00
8:15 pm 20:15 Clear 36 2 23 -5 60 60 Calm 30.03 1017 10 16 0.00 0.00
8:35 pm 20:35 Clear 34 1 23 -5 65 65 N 3 6 30.03 1017 10 16 0.00 0.00
8:55 pm 20:55 Clear 34 1 23 -5 65 65 N 3 6 30.00 1016 10 16 0.00 0.00
9:15 pm 21:15 Clear 36 2 23 -5 60 60 N 3 6 30.00 1016 10 16 0.00 0.00
9:35 pm 21:35 Clear 32 0 23 -5 69 69 Calm 30.00 1016 10 16 0.00 0.00
9:55 pm 21:55 Clear 32 0 23 -5 69 69 Calm 30.00 1016 10 16 0.00 0.00
10:15 pm 22:15 Clear 32 0 23 -5 69 69 Calm 30.00 1016 10 16 0.00 0.00
10:35 pm 22:35 Clear 32 0 25 -4 75 75 N 5 7 30.00 1016 10 16 0.00 0.00
10:55 pm 22:55 Clear 32 0 23 -5 69 69 Calm 29.97 1015 10 16 0.00 0.00
11:15 pm 23:15 Clear 32 0 23 -5 69 69 Calm 29.97 1015 10 16 0.00 0.00
11:35 pm 23:35 Clear 32 0 23 -5 69 69 N 3 6 29.97 1015 10 16 0.00 0.00
11:55 pm 23:55 Clear 32 0 23 -5 69 69 N 3 6 29.97 1015 10 16 0.00 0.00

Powered by AerisWeather